Notices

What's New in latest Release from April 7th, 2021:

- Updated Glossary, including Speed of Maximum Gust, and Total Hourly Precipitation

- Updated national and regional climate services offices contacts and prices information

- Addition of station inventory lists for 1981-2010, 1971-2000, and 1961-1990 Normals.

If you haven't already, please take our survey and provide feedback about our website: https://eccc.sondage-survey.ca/f/LanguageSelection.aspx?s=442ca660-fcf1-47c0-95a9-59707d6fd709

Hourly Data Report for December 21, 2020

SHEARWATER RCS
NOVA SCOTIA
Current Station Operator: ECCC - MSC

44°37'47.000" N
63°30'48.000" W
24.00 m
8205092
71264
AAW

Download Data

Hourly Data (December 2020)
Hourly Data Report for December 21, 2020
TIME
LST
Temp Definition
°C
Dew Point Definition
°C
Rel Hum Definition
%
Precip. Amount Definition
mm

Wind Dir Definition
10's deg

Wind Spd Definition
km/h
Visibility Definition
km
Stn Press Definition
kPa
Hmdx Definition


Wind Chill Definition


Weather Definition


00:00 3.1 0.8 85 0.0 11 9   101.86     LegendNANA
01:00 4.4 2.0 84 0.0 12 11   101.76     LegendNANA
02:00 4.6 2.8 88 0.0 9 6   101.71     LegendNANA
03:00 4.8 4.0 94 0.5 8 7   101.62     LegendNANA
04:00 4.5 4.1 97 0.9 6 9   101.49     LegendNANA
05:00 6.7 6.0 96 0.6 14 17   101.38     LegendNANA
06:00 6.8 6.2 97 0.7 14 14   101.33     LegendNANA
07:00 7.1 6.7 98 0.7 14 14   101.26     LegendNANA
08:00 7.4 7.2 98 1.3 11 11   101.19     LegendNANA
09:00 7.2 7.0 98 1.7 12 6   101.13     LegendNANA
10:00 7.3 7.1 98 2.1 12 6   101.07     LegendNANA
11:00 7.6 7.4 99 0.7 8 3   100.94     LegendNANA
12:00 8.0 7.8 99 0.2 7 7   100.78     LegendNANA
13:00 8.1 7.8 98 0.0 6 8   100.61     LegendNANA
14:00 7.6 7.4 98 0.0 6 6   100.47     LegendNANA
15:00 7.8 7.6 99 0.0 8 6   100.40     LegendNANA
16:00 8.0 7.9 99 0.5 8 8   100.32     LegendNANA
17:00 8.4 8.3 99 2.1 7 9   100.17     LegendNANA
18:00 8.1 8.0 99 3.0 5 12   99.96     LegendNANA
19:00 8.9 8.8 99 0.8 3 13   99.74     LegendNANA
20:00 9.1 8.9 99 0.4 3 11   99.61     LegendNANA
21:00 8.6 8.4 99 0.0 7 6   99.42     LegendNANA
22:00 8.2 8.0 99 0.4 5 10   99.21     LegendNANA
23:00 8.7 8.6 99 0.0 6 5   99.02     LegendNANA

Notes on Data Quality.

Legend

  • E = Estimated
  • M = Missing
  • NA = Not Available*
  • [empty] = Indicates an unobserved value
Date modified: